Regional Weather Roundup
Issued by NWS Burlington, VT

Home | Current Version | Previous Version | Text Only | Print | Product List | Glossary On
Versions: 1 2 3 4 5 6 7 8 9 10 11 12 13 14 15 16 17 18 19 20 21 22 23 24 25 26 27 28 29 30 31 32 33 34 35 36 37 38 39 40 41 42 43 44 45 46 47 48 49 50
000
ASUS41 KBTV 311230
RWRBTV
VERMONT REGIONAL WEATHER ROUNDUP
NATIONAL WEATHER SERVICE BURLINGTON VT
800 AM EDT TUE MAR 31 2015

NOTE: "FAIR" INDICATES FEW OR NO CLOUDS BELOW 12,000 FEET WITH NO
SIGNIFICANT WEATHER AND/OR OBSTRUCTIONS TO VISIBILITY.

* THESE REPORTS ARE NOT UNDER NWS QUALITY CONTROL AND/OR DO NOT
  REPORT WEATHER SUCH AS PRECIPITATION AND FOG.

VTZ001>019-311300-
_____VERMONT_____


CITY           SKY/WX    TMP DP  RH WIND       PRES   REMARKS
BURLINGTON     PTSUNNY   31  21  66 N7        29.79R
6HR MIN TEMP:  30; 6HR MAX TEMP:  35; 6HR PCP: TRACE;

MONTPELIER     LGT SNOW  26  21  81 NW12G23   29.77R WCI  16
6HR MIN TEMP:  26; 6HR MAX TEMP:  30; 6HR PCP:  0.01;

MORRISVILLE    CLOUDY    28  17  63 NW9       29.76S
6HR MIN TEMP:  28; 6HR MAX TEMP:  33; 6HR PCP: TRACE;

ST. JOHNSBURY*   N/A     29  21  72 MISG      29.73R
6HR MIN TEMP:  29; 6HR MAX TEMP:  33;

LYNDONVILLE*   FLURRIES  27  17  64 SW9G17    29.73R
6HR MIN TEMP:  27; 6HR MAX TEMP:  32;

MIDDLEBURY*      N/A     32  23  68 N6        29.77R
6HR MIN TEMP:  32; 6HR MAX TEMP:  35;

RUTLAND*       CLOUDY    34  19  55 NW9G22    29.75S
6HR MIN TEMP:  34; 6HR MAX TEMP:  36;

SPRINGFIELD    CLOUDY    35  18  49 NW9G17    29.75R
6HR MIN TEMP:  34; 6HR MAX TEMP:  37; 6HR PCP: TRACE;

HIGHGATE*      CLOUDY    29  18  62 CALM      29.79S
6HR MIN TEMP:  28; 6HR MAX TEMP:  32;

NEWPORT*       CLOUDY    25  16  68 W15G22    29.74R WCI  13
6HR MIN TEMP:  26; 6HR MAX TEMP:  30;

BENNINGTON     CLOUDY    34  28  79 W6        29.77R
6HR MIN TEMP:  33; 6HR MAX TEMP:  36;

SUTTON*          N/A     25 N/A N/A MISG        N/A
MT. MANSFIELD*   N/A     14 N/A N/A CALM        N/A

_____LAKE CHAMPLAIN_____


CITY           SKY/WX    TMP DP  RH WIND       PRES   REMARKS
BURTON ISLAND*   N/A     30  21  69 NW8         N/A
COLCHESTER RF*   N/A     32  23  69 N13         N/A
DIAMOND ISL*     N/A     32  25  74 N12         N/A

$$

NYZ007-026>031-035-052-083-311300-
_____NORTHERN NEW YORK_____


CITY           SKY/WX    TMP DP  RH WIND       PRES   REMARKS
PLATTSBURGH    CLOUDY    30  18  60 W6        29.80R
6HR MIN TEMP:  30; 6HR MAX TEMP:  34;

SARANAC LAKE   CLOUDY    24  19  81 VRB6      29.72R
6HR MIN TEMP:  24; 6HR MAX TEMP:  28; 6HR PCP: TRACE;

MASSENA        SUNNY     27  14  58 NW10      29.86R WCI  17
6HR MIN TEMP:  26; 6HR MAX TEMP:  34;

OGDENSBURG*    SUNNY     28  19  69 N5        29.86S
POTSDAM*       SUNNY     27  18  69 N10       29.85R WCI  17
WATERTOWN      CLOUDY    31  19  61 NE9       29.85R
6HR MIN TEMP:  31; 6HR MAX TEMP:  35;

FT DRUM        CLOUDY    28  15  59 N7        29.83R
6HR MIN TEMP:  27; 6HR MAX TEMP:  32;

ALBANY         PTSUNNY   37  26  64 W14       29.82R
6HR MIN TEMP:  35; 6HR MAX TEMP:  39;

GLENS FALLS    CLOUDY    33  26  75 S3        29.79R
6HR MIN TEMP:  30; 6HR MAX TEMP:  37;


$$
NHZ002-005-011-311300-
_____NEW HAMPSHIRE_____


CITY           SKY/WX    TMP DP  RH WIND       PRES   REMARKS
LEBANON        CLOUDY    35  22  58 N3        29.73S
6HR MIN TEMP:  34; 6HR MAX TEMP:  37; 6HR PCP: TRACE;

KEENE          CLOUDY    37  21  52 W10       29.75R
6HR MIN TEMP:  36; 6HR MAX TEMP:  37;

MT WASHINGTON  SNOW       5   5 100 NW64G70     N/A  VSB 0   WCI -27
6HR MIN TEMP:   4; 6HR MAX TEMP:  12; 6HR PCP:  0.30;

PLYMOUTH       CLOUDY    32  26  78 W6        29.72R
6HR MIN TEMP:  31; 6HR MAX TEMP:  33;

WHITEFIELD     CLOUDY    28  19  69 VRB6      29.71R
6HR MIN TEMP:  28; 6HR MAX TEMP:  33; 6HR PCP:  0.02;


$$

_____REGIONAL QUEBEC LOCATIONS_____


CITY           SKY/WX    TMP DP  RH WIND       PRES   REMARKS
MONTREAL       MOSUNNY   23   7  50 W18       29.81R WCI   9
QUEBEC CITY    PTSUNNY   23  16  74 W14       29.67R WCI  11
SHERBROOKE     FLURRIES  25  21  86 W15G21    29.70R WCI  12

_____REGIONAL ONTARIO LOCATIONS_____


CITY           SKY/WX    TMP DP  RH WIND       PRES   REMARKS
OTTAWA         MOSUNNY   23  12  63 NW12      29.86R WCI  12

______KEY______
VSB  - VISIBILITY IN MILES
WCI  - WIND CHILL INDEX
HX   - HEAT INDEX
$$



USA.gov is the U.S. government's official web portal to all federal, state and local government web resources and services.